This is the latest recevied weather packets stored in our database for station/object N9DMT-13. If no packets are shown the sender has not sent any weather packets the latest 1 day(s).
| Time | Temp. | Humidity | Pressure | Rain* | Wind** | Luminosity | Snow |
|---|---|---|---|---|---|---|---|
| 1778007777 | 13.33° C | 33% | 978.3 hPa | 0 mm | 0.45 m/s, 5° | - | - |
| 1778007477 | 13.89° C | 33% | 978.2 hPa | 0 mm | 0 m/s | - | - |
| 1778007176 | 13.33° C | 34% | 978.3 hPa | 0 mm | 0 m/s | - | - |
| 1778006875 | 13.89° C | 32% | 978.1 hPa | 0 mm | 0.45 m/s, 237° | - | - |
| 1778006574 | 13.33° C | 35% | 978.1 hPa | 0 mm | 1.34 m/s, 257° | - | - |
| 1778006273 | 13.33° C | 34% | 978.2 hPa | 0 mm | 0.45 m/s, 319° | - | - |
| 1778005972 | 13.33° C | 35% | 978.1 hPa | 0 mm | 0.45 m/s, 308° | - | - |
| 1778005672 | 12.78° C | 33% | 977.9 hPa | 0 mm | 0 m/s | - | - |
| 1778005371 | 12.22° C | 35% | 977.9 hPa | 0 mm | 0.45 m/s, 349° | - | - |
| 1778005070 | 12.22° C | 36% | 978.1 hPa | 0 mm | 0.45 m/s, 321° | - | - |
| 1778004769 | 13.33° C | 33% | 978.1 hPa | 0 mm | 1.34 m/s, 286° | - | - |
| 1778004469 | 12.22° C | 34% | 978.1 hPa | 0 mm | 0.89 m/s, 231° | - | - |
| 1778004167 | 12.78° C | 36% | 978.2 hPa | 0 mm | 0.89 m/s, 303° | - | - |
| 1778003867 | 12.78° C | 35% | 978.1 hPa | 0 mm | 1.79 m/s, 248° | - | - |
| 1778003566 | 12.78° C | 32% | 978.1 hPa | 0 mm | 1.79 m/s, 248° | - | - |
| 1778003265 | 12.22° C | 34% | 978.1 hPa | 0 mm | 0.89 m/s, 228° | - | - |
| 1778002964 | 12.22° C | 34% | 977.9 hPa | 0 mm | 1.34 m/s, 34° | - | - |
| 1778002663 | 12.78° C | 35% | 978.1 hPa | 0 mm | 0 m/s | - | - |
| 1778002363 | 13.33° C | 37% | 978.2 hPa | 0 mm | 2.68 m/s, 289° | - | - |
| 1778002062 | 12.22° C | 36% | 977.9 hPa | 0 mm | 0 m/s | - | - |
| 1778001761 | 12.22° C | 33% | 978 hPa | 0 mm | 0.89 m/s, 350° | - | - |
| 1778001460 | 12.78° C | 33% | 978.1 hPa | 0 mm | 0.45 m/s, 249° | - | - |
| 1778001159 | 12.22° C | 36% | 978.1 hPa | 0 mm | 0.89 m/s, 229° | - | - |
| 1778000859 | 12.22° C | 33% | 978 hPa | 0 mm | 2.68 m/s, 1° | - | - |
| 1778000558 | 13.33° C | 33% | 978.2 hPa | 0 mm | 0 m/s | - | - |
* Rain latest hour (hover to see other rain measurements)
** Current wind speed in m/s (hover to see current wind gust speed)